www.pogodaiklimat.ru

Погода и климат >> Архив погоды >> Мадагаскар >> Taolagnaro


ПОГОДА в Taolagnaro

  • Прогноз погоды в Taolagnaro
  • Монитор погоды в Taolagnaro
  • Климат города

АРХИВ ПОГОДЫ в Taolagnaro

Время (UTC), дата Ветер
(напр.,м/с)
 
Видим.   Явления Облачность Т
(С)
Тd
(С)
f
(%)
Тe
(С)
Тes
(С)
Комфортность P
(гПа)
Po
(гПа)
Тmin
(С)
Tmax
(С)
R
(мм)
R24
(мм)
S
(см)
09 15.10 СВ 10 30 км 3/3 600 м
[Cu Sc]
+28.5 +20.7 63 +36 +36 очень
душно
1013.5 1012.5
12 15.10 СВ 9 25 км 6/5 600 м
[Cb cap Ci ing]
+28.0 +22.1 70 +36 +37 очень
душно
1012.5 1011.5
15 15.10 СВ 7 20 км зарница 8/6 600 м
[Cb cap Ci ing]
+24.5 +21.3 82 +31 +31 очень
душно
1013.1 1012.1 +29.8
18 15.10 СВ 7 20 км 6/6 480 м
[Cu Sc]
+23.4 +21.3 88 +31 +31 очень
душно
1013.5 1012.5 +29.8
21 15.10 СВ 4 20 км {гроза, дождь} 9/9 480 м
[Cu Sc]
+21.0 +18.4 85 +26 +26 душно 1014.2 1013.2 0.0
00 16.10 СВ 2 20 км {гроза, дождь} 5/5 480 м
[Cu Sc]
+20.4 +18.2 87 +25 +25 комфорт 1013.0 1012.0 0.0
03 16.10 штиль 0 30 км 3/3 600 м
[Cu Sc]
+21.6 +17.4 77 +26 +26 душно 1012.6 1011.6 0.0
06 16.10 СЗ 1 30 км 4/1 600 м
[Cu Sc Ac trans]
+26.8 +21.4 72 +34 +44 очень
душно
1013.4 1012.4 +19.8 +29.8 0.0
09 16.10 Ю 7 25 км 8/6 600 м
[Cu Sc Ac trans]
+26.4 +21.0 72 +33 +35 очень
душно
1013.8 1012.8
12 16.10 СЗ 1 25 км 8/5 600 м
[Cb cap Ac trans]
+26.2 +21.6 76 +34 +37 очень
душно
1012.3 1011.3
15 16.10 штиль 0 25 км 9/9 600 м
[Cb cap]
+25.0 +21.8 82 +32 +32 очень
душно
1013.4 1012.4 +28.0
18 16.10 штиль 0 20 км в посл. час гроза 6/6 480 м
[Cb calv]
+23.0 +21.8 93 +31 +31 очень
душно
1015.0 1014.0 +28.0
21 16.10 штиль 0 20 км зарница 8/8 480 м
[Cb calv]
+21.5 +20.7 95 +27 +27 душно 1014.5 1013.5
00 17.10 штиль 0 25 км 3/3 480 м
[Cu Sc]
+20.2 +19.6 96 +24 +24 комфорт 1013.6 1012.6
03 17.10 Ю 1 25 км 5/5 480 м
[Cu Sc]
+20.0 +19.4 96 +24 +25 комфорт 1014.4 1013.4
06 17.10 ЮВ 2 30 км 4/4 600 м
[Cu Sc]
+25.6 +20.8 75 +32 +39 очень
душно
1014.3 1013.3 +19.8 +28.0
09 17.10 Ю 4 30 км 3/3 600 м
[Cu med, cong Ac trans]
+28.3 +22.0 69 +37 +46 очень
душно
1012.9 1011.9
12 17.10 ЮВ 3 30 км 8/8 600 м
[Cu Sc]
+26.5 +21.5 74 +34 +35 очень
душно
1012.2 1011.2
15 17.10 В 3 20 км 8/8 600 м
[Cu Sc Ci sp]
+25.0 +21.4 80 +32 +32 очень
душно
1013.1 1012.1 +28.3
18 17.10 СВ 1 20 км зарница 8/8 480 м
[Cb cap]
+23.5 +21.6 89 +30 +30 очень
душно
1014.1 1013.1 +28.3
21 17.10 штиль 0 20 км 8/8 480 м
[Cu Sc]
+22.8 +21.3 91 +30 +30 очень
душно
1013.4 1012.4
00 18.10 штиль 0 20 км 5/4 480 м
[Cu Sc Ci sp]
+21.8 +20.7 93 +28 +28 душно 1010.6 1009.6
03 18.10 штиль 0 30 км 6/5 600 м
[Cu Sc Ac trans]
+22.0 +20.3 90 +28 +28 душно 1010.8 1009.8
06 18.10 З 1 30 км 6/3 600 м
[Cu med, cong Ac trans Ci sp]
+26.8 +21.3 72 +34 +42 очень
душно
1011.7 1010.7 +21.3 +28.3
09 18.10 Ю 4 30 км 6/3 600 м
[Cu med, cong Ci sp]
+27.8 +21.4 68 +35 +44 очень
душно
1010.6 1009.6
15 18.10 З 9 20 км 9/9 480 м
[Cu Sc]
+23.3 +21.7 91 +32 +32 очень
душно
1010.4 1009.4 +28.5 2
18 18.10 З 6 20 км 5/5 600 м
[Cu Sc]
+22.4 +18.7 80 +28 +28 душно 1012.7 1011.7 +28.5 2
21 18.10 ЮЗ 5 20 км 6/6 600 м
[Cu Sc]
+21.4 +18.9 86 +26 +26 душно 1012.3 1011.3
00 19.10 штиль 0 20 км 9/9 600 м
[Cu Sc]
+21.2 +19.4 89 +26 +26 душно 1012.2 1011.2
03 19.10 ЮЗ 5 20 км 8/8 480 м
[Cu Sc]
+21.0 +19.0 88 +26 +26 душно 1013.3 1012.3
06 19.10 З 3 20 км 5/5 480 м
[Cu Sc]
+23.0 +17.4 71 +28 +33 душно 1014.8 1013.8 +20.2 +28.5 2
09 19.10 ЮЗ 5 30 км 6/6 600 м
[Cu Sc]
+23.8 +18.0 70 +28 +32 душно 1014.4 1013.4
12 19.10 Ю 6 30 км 6/6 600 м
[Cu Sc]
+24.0 +18.5 71 +28 +30 душно 1013.9 1012.9
15 19.10 Ю 5 25 км 8/8 600 м
[Cu Sc]
+22.2 +17.8 76 +27 +27 душно 1014.9 1013.9 +25.7
21 19.10 ЮЗ 3 20 км 9/9 480 м
[Cu Sc]
+21.0 +17.0 78 +25 +25 комфорт 1016.5 1015.5
00 20.10 штиль 0 20 км 9/9 480 м
[Cu Sc]
+20.8 +16.4 76 +24 +24 комфорт 1015.4 1014.4
03 20.10 штиль 0 30 км 5/5 600 м
[Cu Sc]
+20.2 +16.6 80 +23 +23 комфорт 1015.9 1014.9
06 20.10 ЮВ 2 30 км 8/8 600 м
[Cu Sc]
+23.8 +16.2 62 +27 +29 жарко 1016.6 1015.6 +19.1 +25.7
09 20.10 ЮВ 2 30 км 9/9 600 м
[Cu Sc]
+23.2 +16.4 66 +28 +30 душно 1015.9 1014.9
12 20.10 ЮЗ 2 30 км 9/9 600 м
[Cu Sc]
+22.7 +15.5 64 +27 +28 душно 1015.2 1014.2
15 20.10 ЮЗ 3 30 км 9/9 600 м
[Cu Sc]
+22.0 +15.4 66 +26 +26 душно 1016.0 1015.0 +23.5
18 20.10 СЗ 1 20 км 8/8 480 м
[Cu Sc]
+21.5 +15.7 70 +25 +25 комфорт 1017.4 1016.4 +23.5
21 20.10 СЗ 1 25 км 1/1 480 м
[Cu med, cong]
+18.7 +15.9 84 +21 +21 комфорт 1016.6 1015.6
00 21.10 З 3 25 км 1/1 480 м
[Cu med, cong]
+17.8 +16.2 90 +18 +18 1015.5 1014.5
03 21.10 СЗ 2 25 км 5/4 480 м
[Cu Sc Ac trans]
+17.2 +15.2 88 +17 +18 1015.1 1014.1
06 21.10 З 7 30 км 6/5 600 м
[Cu Sc Ac trans]
+24.1 +13.4 51 +26 +28 жарко 1014.7 1013.7 +16.6 +23.5
09 21.10 З 9 30 км 8/8 600 м
[Cu Sc]
+24.0 +15.8 60 +27 +28 жарко 1013.0 1012.0
12 21.10 ЮЗ 12
{22}
10 км слабый дождь 9/9 480 м
[Cu Sc]
+19.1 +17.2 89 +20 +20 1013.4 1012.4 0.8
15 21.10 З 6
{19}
10 км слабый ливневой дождь 9/9 480 м
[Cu Sc]
+17.8 +16.3 91 +17 +17 1014.9 1013.9 +26.2 1
18 21.10 З 8 20 км {ливн. осадки, дождь} 4/4 480 м
[Cu Sc]
+17.8 +12.8 73 +17 +17 1016.0 1015.0 +26.2 1
21 21.10 З 8 20 км 3/3 480 м
[Cu Sc]
+15.8 +12.6 81 +14 +14 1017.0 1016.0
00 22.10 З 7 20 км 4/4 480 м
[Cu Sc]
+15.2 +8.1 63 +13 +13 1016.4 1015.4
03 22.10 З 9 30 км 4/4 480 м
[Cu Sc]
+17.5 +8.9 57 +16 +16 1017.1 1016.1

 

Местоположение метеостанции Taolagnaro (Мадагаскар): широта -25.03 долгота 46.95 высота над уровнем моря 9 м.

В архиве по умолчанию представлена погода в Taolagnaro за последнюю неделю. Архивные данные за месяц целиком и за предыдущие месяцы, начиная с января 2011 года, Вы можете получить, выбрав интересующий диапазон дат из раскрывающегося списка и нажав кнопку "Ввод!".


*Определитесь, кто Вы:
робот инопланетянин человек

Внимание! Время в таблицах - всемирное. Для получения местного времени необходимо прибавить поправку, которая в Taolagnaro равна 3 ч.

Смотрите также архив погоды в соседних городах и на ближайших метеорологических станциях:

Погода в Ranohira (Мадагаскар) (166 км)
Погода в Farafangana (Мадагаскар) (264 км)
Погода в Toliara (Мадагаскар) (375 км)
Погода в Fianarantsoa (Мадагаскар) (398 км)
Погода в Mananjary (Мадагаскар) (408 км)
Погода в Morombe (Мадагаскар) (516 км)
Погода в Antsirabe (Мадагаскар) (581 км)
Погода в Morondava (Мадагаскар) (593 км)
Погода в Mahanoro (Мадагаскар) (609 км)
Погода в Antananarivo (Мадагаскар) (687 км)

Пояснения к столбцам:

Ветер - указаны скорость ветра в м/с - средняя за 10 мин, порывы в срок и между сроками (в фигурных скобках) и направление, откуда дует ветер: С - северный, СВ - северо-восточный, В - восточный, ЮВ - юго-восточный, Ю - южный, ЮЗ - юго-западный, З - западный, СЗ - северо-западный.
Видимость - горизонтальная дальность видимости в метрах или километрах. При видимости от 1 до 10 км при отсутствии осадков обычно наблюдается дымка, при ухудшении видимости до 1 км и менее - туман. В сухую погоду видимость может ухудшаться дымом, пылью или мглою.
Явления - указаны атмосферные явления, наблюдавшиеся в срок или в последний час перед сроком; фигурными скобками обозначены явления, наблюдавшиеся между сроками (за 1-3 часа до срока); квадратными скобками обозначены град или гололедные отложения с указанием их диаметра в мм.
Облачность - указаны через наклонную черту общая и нижняя облачность в баллах и высота нижней границы облаков в метрах; квадратными скобками обозначены формы облаков: Ci - перистые, Cs - перисто-слоистые, Cc - перисто-кучевые, Ac - высококучевые, As - высокослоистые, Sc - слоисто-кучевые, Ns - слоисто-дождевые, Cu - кучевые, Cb - кучево-дождевые. Подробнее классификацию облаков см. в Атласе облаков (PDF).
T - Температура воздуха - температура, измеренная на высоте 2 м над землей.
Td - Температура точки росы - температура, при понижении до которой содержащийся в воздухе водяной пар достигнет насыщения.
f - Относительная влажность воздуха - влажноcть воздуха, измеренная на высоте 2 м над землей.
Te - Эффективная температура - температура, которую ощущает одетый по сезону человек в тени. Характеристика душности погоды. При расчете учитывается влияние влажности воздуха и скорости ветра на теплоощущения человека.
Tes - Эффективная температура на солнце - температура, которую ощущает человек, с поправкой на солнечный нагрев. Характеристика знойности погоды. Зависит от высоты солнца над горизонтом, облачности и скорости ветра. Ночью, в пасмурную погоду, а также при ветре 12 м/с и более поправка равна нулю.
P - Атмосферное давление - приведенное к уровню моря атмосферное давление.
Po - Атмосферное давление - измеренное на уровне метеостанции атмосферное давление.
Tmin - Минимальная температура - минимум температуры воздуха на высоте 2 м над землей.
Tmax - Максимальная температура - максимум температуры воздуха на высоте 2 м над землей.
R - Количество осадков - Количество выпавших осадков за период времени, мм. При наведении курсора мыши на число - период времени, за который выпало указанное количество осадков.
R24 - Количество осадков - Количество выпавших осадков за 24 часа, мм.
S - Снежный покров - Высота снежного покрова, см. При наведении курсора мыши на число - состояние снежного покрова и степень покрытия местности в баллах.